TimeEDT,TemperatureF,Dew PointF,Humidity,Sea Level PressureIn,VisibilityMPH,Wind Direction,Wind SpeedMPH,Gust SpeedMPH,PrecipitationIn,Events,Conditions,WindDirDegrees,DateUTC
12:15 AM,62.6,57.2,82,30.11,10.0,Calm,Calm,-,N/A,,Clear,0,2013-08-19 04:15:00
12:35 AM,62.6,57.2,82,30.10,10.0,Calm,Calm,-,N/A,,Clear,0,2013-08-19 04:35:00
12:55 AM,62.6,57.2,82,30.10,10.0,Calm,Calm,-,N/A,,Clear,0,2013-08-19 04:55:00
1:15 AM,60.8,55.4,82,30.10,10.0,Calm,Calm,-,N/A,,Clear,0,2013-08-19 05:15:00
1:35 AM,62.6,57.2,82,30.09,10.0,SW,3.5,-,N/A,,Clear,220,2013-08-19 05:35:00
1:55 AM,60.8,57.2,88,30.09,10.0,SW,4.6,-,N/A,,Clear,230,2013-08-19 05:55:00
2:15 AM,60.8,55.4,82,30.09,10.0,WSW,4.6,-,N/A,,Clear,240,2013-08-19 06:15:00
2:35 AM,60.8,57.2,88,30.09,10.0,WSW,4.6,-,N/A,,Clear,240,2013-08-19 06:35:00
2:55 AM,60.8,55.4,82,30.09,10.0,West,4.6,-,N/A,,Clear,270,2013-08-19 06:55:00
3:15 AM,60.8,55.4,82,30.09,10.0,West,5.8,-,N/A,,Clear,270,2013-08-19 07:15:00
3:35 AM,62.6,57.2,82,30.08,10.0,West,5.8,-,N/A,,Clear,280,2013-08-19 07:35:00
3:55 AM,62.6,57.2,82,30.08,10.0,West,5.8,-,N/A,,Clear,270,2013-08-19 07:55:00
4:15 AM,62.6,57.2,82,30.08,10.0,West,5.8,-,N/A,,Clear,260,2013-08-19 08:15:00
4:35 AM,62.6,57.2,82,30.09,10.0,West,6.9,-,N/A,,Clear,270,2013-08-19 08:35:00
4:55 AM,62.6,57.2,82,30.08,10.0,West,8.1,-,N/A,,Clear,260,2013-08-19 08:55:00
5:15 AM,62.6,59.0,88,30.08,10.0,West,9.2,-,N/A,,Clear,260,2013-08-19 09:15:00
5:35 AM,62.6,59.0,88,30.08,10.0,WSW,11.5,-,N/A,,Clear,250,2013-08-19 09:35:00
5:55 AM,64.4,59.0,83,30.09,10.0,WSW,12.7,-,N/A,,Clear,240,2013-08-19 09:55:00
6:15 AM,64.4,57.2,77,30.09,10.0,WSW,12.7,-,N/A,,Clear,240,2013-08-19 10:15:00
6:35 AM,64.4,57.2,77,30.09,10.0,WSW,11.5,-,N/A,,Clear,240,2013-08-19 10:35:00
6:55 AM,64.4,59.0,83,30.09,10.0,WSW,8.1,-,N/A,,Clear,240,2013-08-19 10:55:00
7:15 AM,66.2,60.8,83,30.08,10.0,WSW,9.2,-,N/A,,Clear,240,2013-08-19 11:15:00
7:35 AM,66.2,60.8,83,30.08,10.0,West,10.4,-,N/A,,Clear,260,2013-08-19 11:35:00
7:55 AM,68.0,62.6,83,30.08,10.0,West,10.4,-,N/A,,Clear,260,2013-08-19 11:55:00
8:15 AM,68.0,62.6,83,30.07,10.0,West,12.7,-,N/A,,Clear,270,2013-08-19 12:15:00
8:35 AM,69.8,62.6,78,30.08,10.0,West,11.5,-,N/A,,Clear,260,2013-08-19 12:35:00
8:55 AM,69.8,62.6,78,30.08,10.0,West,11.5,-,N/A,,Clear,260,2013-08-19 12:55:00
9:15 AM,69.8,62.6,78,30.07,10.0,West,10.4,-,N/A,,Clear,260,2013-08-19 13:15:00
9:35 AM,69.8,62.6,78,30.07,10.0,West,10.4,-,N/A,,Clear,260,2013-08-19 13:35:00
9:55 AM,71.6,62.6,73,30.06,10.0,West,11.5,-,N/A,,Clear,280,2013-08-19 13:55:00
10:15 AM,71.6,64.4,78,30.06,10.0,West,10.4,17.3,N/A,,Clear,270,2013-08-19 14:15:00
10:35 AM,71.6,62.6,73,30.06,10.0,West,10.4,17.3,N/A,,Clear,280,2013-08-19 14:35:00
10:55 AM,73.4,62.6,69,30.06,10.0,West,12.7,-,N/A,,Clear,280,2013-08-19 14:55:00
11:15 AM,73.4,62.6,69,30.05,10.0,West,12.7,-,N/A,,Clear,260,2013-08-19 15:15:00
11:35 AM,73.4,62.6,69,30.05,10.0,West,13.8,-,N/A,,Clear,270,2013-08-19 15:35:00
11:55 AM,75.2,62.6,65,30.05,10.0,West,10.4,-,N/A,,Clear,260,2013-08-19 15:55:00
12:15 PM,73.4,62.6,69,30.05,10.0,WSW,11.5,-,N/A,,Clear,250,2013-08-19 16:15:00
12:35 PM,73.4,62.6,69,30.05,10.0,WSW,11.5,-,N/A,,Clear,250,2013-08-19 16:35:00
12:55 PM,75.2,62.6,65,30.05,10.0,WSW,11.5,17.3,N/A,,Clear,250,2013-08-19 16:55:00
1:15 PM,75.2,62.6,65,30.04,10.0,WSW,10.4,-,N/A,,Clear,250,2013-08-19 17:15:00
1:35 PM,77.0,62.6,61,30.04,10.0,WSW,10.4,-,N/A,,Clear,250,2013-08-19 17:35:00
1:55 PM,75.2,64.4,69,30.03,10.0,WSW,11.5,-,N/A,,Clear,240,2013-08-19 17:55:00
2:15 PM,75.2,62.6,65,30.03,10.0,WSW,10.4,-,N/A,,Clear,250,2013-08-19 18:15:00
2:35 PM,75.2,62.6,65,30.03,10.0,WSW,12.7,17.3,N/A,,Clear,250,2013-08-19 18:35:00
2:55 PM,75.2,62.6,65,30.02,10.0,WSW,10.4,-,N/A,,Clear,240,2013-08-19 18:55:00
3:15 PM,73.4,64.4,73,30.02,10.0,WSW,12.7,-,N/A,,Clear,240,2013-08-19 19:15:00
3:35 PM,73.4,64.4,73,30.02,10.0,WSW,11.5,-,N/A,,Clear,240,2013-08-19 19:35:00
3:55 PM,73.4,64.4,73,30.01,10.0,WSW,10.4,-,N/A,,Clear,240,2013-08-19 19:55:00